Saint Simons Island, GA

8:14 AM EST on December 08, 2019 (GMT -0500)
McKinnon

Weather History for KSSI - October, 2019

Change the Weather History Date:

Friday, October 25, 2019

  Actual Average Record
Temperature  
Mean Temperature 79 °F 68 °F  
Max Temperature 83 °F 76 °F 87 °F (2001)
Min Temperature 74 °F 59 °F 41 °F (1962)
Degree Days  
Heating Degree Days 0 2  
Month to date heating degree days 0 17  
Since 1 July heating degree days 0 17  
Cooling Degree Days 14 4  
Month to date cooling degree days 276 168  
Year to date cooling degree days 3263 2539  
Growing Degree Days 28 (Base 50)    
Moisture  
Dew Point 70 °F    
Average Humidity 76    
Maximum Humidity 87    
Minimum Humidity 65    
Precipitation  
Precipitation T in 0.11 in 1.66 in (1977)
Month to date precipitation 5.16 3.91  
Year to date precipitation 32.26 39.78  
Snow  
Snow 0.00 in - 0.00 in ()
Month to date snowfall 0.0  
Since 1 July snowfall 0.0  
Since 1 September snowfall 0.0  
Snow Depth 0.00 in    
Sea Level Pressure  
Sea Level Pressure 30.13 in    
Wind  
Wind Speed 9 mph (East)    
Max Wind Speed 15 mph    
Max Gust Speed 20 mph    
Visibility 10 miles    
Events      
T = Trace of Precipitation, MM = Missing Value Source: NWS Daily Summary

Daily Weather History Graph

Daily Weather History Graph

Search for Another Location

Airport or City:

Astronomy

Oct. 25, 2019 Rise Set
Actual Time 7:35 AM EDT 6:43 PM EDT
Civil Twilight 7:10 AM EDT 7:08 PM EDT
Nautical Twilight 6:42 AM EDT 7:36 PM EDT
Astronomical Twilight 6:14 AM EDT 8:04 PM EDT
Moon 4:34 AM EDT (10/25) 5:29 PM EDT (10/25)
Length of Visible Light 11h 57m
Length of Day
11h 08m
Waning Crescent, 9% of the Moon is Illuminated
Oct 25
Waning Crescent
Oct 27
New
Nov 4
First Quarter
Nov 12
Full
Nov 19
Last Quarter

Hourly Weather History & Observations

Time (EDT) Temp. Heat Index Dew Point Humidity Pressure Visibility Wind Dir Wind Speed Gust Speed Precip Events Conditions
12:53 AM 73.9 °F - 70.0 °F 87% 30.17 in 10.0 mi ENE 6.9 mph - N/A   Clear
1:53 AM 73.9 °F - 69.1 °F 85% 30.17 in 10.0 mi NE 5.8 mph - N/A   Clear
2:53 AM 75.0 °F - 69.1 °F 82% 30.15 in 10.0 mi ENE 6.9 mph - N/A   Overcast
3:53 AM 75.9 °F - 70.0 °F 82% 30.14 in 10.0 mi East 9.2 mph - N/A   Overcast
4:53 AM 75.9 °F - 70.0 °F 82% 30.14 in 10.0 mi East 8.1 mph - N/A   Mostly Cloudy
5:53 AM 75.9 °F - 69.1 °F 79% 30.14 in 10.0 mi East 6.9 mph - N/A   Clear
6:53 AM 75.0 °F - 69.1 °F 82% 30.14 in 10.0 mi East 5.8 mph - N/A   Partly Cloudy
7:53 AM 75.0 °F - 69.1 °F 82% 30.14 in 10.0 mi East 5.8 mph - 0.00 in   Clear
8:53 AM 78.1 °F - 71.1 °F 79% 30.16 in 10.0 mi ENE 6.9 mph - N/A   Clear
9:53 AM 80.1 °F 83.6 °F 71.1 °F 74% 30.17 in 10.0 mi East 6.9 mph - N/A   Clear
10:08 AM 80.1 °F 83.6 °F 71.1 °F 74% 30.17 in 10.0 mi East 8.1 mph - N/A   Mostly Cloudy
10:27 AM 81.0 °F 84.9 °F 71.1 °F 72% 30.17 in 10.0 mi East 9.2 mph - N/A   Scattered Clouds
11:53 AM 80.1 °F 83.2 °F 70.0 °F 71% 30.17 in 10.0 mi ESE 10.4 mph - 0.00 in   Overcast
12:09 PM 79.0 °F - 71.1 °F 77% 30.17 in 10.0 mi East 9.2 mph - N/A   Overcast
12:16 PM 81.0 °F 85.2 °F 72.0 °F 74% 30.17 in 10.0 mi East 10.4 mph - N/A   Overcast
12:53 PM 81.0 °F 84.9 °F 71.1 °F 72% 30.16 in 10.0 mi East 10.4 mph - N/A   Overcast
1:53 PM 81.0 °F 84.4 °F 70.0 °F 69% 30.13 in 10.0 mi East 12.7 mph - 0.00 in   Mostly Cloudy
2:53 PM 81.0 °F 84.4 °F 70.0 °F 69% 30.11 in 10.0 mi East 13.8 mph - N/A   Mostly Cloudy
3:53 PM 82.0 °F 85.5 °F 69.1 °F 65% 30.09 in 10.0 mi East 11.5 mph - N/A   Scattered Clouds
4:53 PM 81.0 °F 83.8 °F 68.0 °F 65% 30.09 in 10.0 mi East 12.7 mph - N/A   Clear
5:53 PM 80.1 °F 82.7 °F 68.0 °F 67% 30.09 in 10.0 mi East 10.4 mph - N/A   Mostly Cloudy
6:53 PM 77.0 °F - 69.1 °F 76% 30.09 in 10.0 mi East 9.2 mph - N/A   Partly Cloudy
7:53 PM 77.0 °F - 69.1 °F 76% 30.10 in 10.0 mi East 8.1 mph - N/A   Partly Cloudy
8:53 PM 77.0 °F - 69.1 °F 76% 30.10 in 10.0 mi East 10.4 mph - N/A   Mostly Cloudy
9:53 PM 77.0 °F - 69.1 °F 76% 30.10 in 10.0 mi East 10.4 mph - N/A   Clear
10:53 PM 75.9 °F - 69.1 °F 79% 30.10 in 10.0 mi East 10.4 mph - N/A   Clear
11:53 PM 75.9 °F - 68.0 °F 76% 30.10 in 10.0 mi East 10.4 mph - N/A   Clear